owner,sensor,date,latitude,longitude,sea_surface_height_above_sea_level,qcFlag 
TCOON,ioos:station:TCOON:031:1,2014-05-01T00:00:00Z,28.4073,-96.7122,0.505,1111122 
TCOON,ioos:station:TCOON:031:1,2014-05-01T01:00:00Z,28.4073,-96.7122,0.52,1111122 
TCOON,ioos:station:TCOON:031:1,2014-05-01T02:00:00Z,28.4073,-96.7122,0.5,1111122 
TCOON,ioos:station:TCOON:031:1,2014-05-01T03:00:00Z,28.4073,-96.7122,0.5,1111122 
TCOON,ioos:station:TCOON:031:1,2014-05-01T04:00:00Z,28.4073,-96.7122,0.466,1111122 
TCOON,ioos:station:TCOON:031:1,2014-05-01T05:00:00Z,28.4073,-96.7122,0.457,1111122 
TCOON,ioos:station:TCOON:031:1,2014-05-01T06:18:00Z,28.4073,-96.7122,0.456,1111122 
TCOON,ioos:station:TCOON:031:1,2014-05-01T07:00:00Z,28.4073,-96.7122,0.457,1111122 
TCOON,ioos:station:TCOON:031:1,2014-05-01T08:00:00Z,28.4073,-96.7122,0.45,1111122 
TCOON,ioos:station:TCOON:031:1,2014-05-01T09:00:00Z,28.4073,-96.7122,0.432,1111122 
TCOON,ioos:station:TCOON:031:1,2014-05-01T10:00:00Z,28.4073,-96.7122,0.437,1111122 
TCOON,ioos:station:TCOON:031:1,2014-05-01T11:00:00Z,28.4073,-96.7122,0.421,1111122 
TCOON,ioos:station:TCOON:031:1,2014-05-01T12:00:00Z,28.4073,-96.7122,0.423,1111122 
TCOON,ioos:station:TCOON:031:1,2014-05-01T13:00:00Z,28.4073,-96.7122,0.418,1111122 
TCOON,ioos:station:TCOON:031:1,2014-05-01T14:00:00Z,28.4073,-96.7122,0.4,1111122 
TCOON,ioos:station:TCOON:031:1,2014-05-01T15:00:00Z,28.4073,-96.7122,0.446,1111122 
TCOON,ioos:station:TCOON:031:1,2014-05-01T16:00:00Z,28.4073,-96.7122,0.46,1111122 
TCOON,ioos:station:TCOON:031:1,2014-05-01T17:00:00Z,28.4073,-96.7122,0.466,1111122 
TCOON,ioos:station:TCOON:031:1,2014-05-01T18:00:00Z,28.4073,-96.7122,0.475,1111122 
TCOON,ioos:station:TCOON:031:1,2014-05-01T19:00:00Z,28.4073,-96.7122,0.449,1111122 
TCOON,ioos:station:TCOON:031:1,2014-05-01T20:00:00Z,28.4073,-96.7122,0.439,1111122 
TCOON,ioos:station:TCOON:031:1,2014-05-01T21:00:00Z,28.4073,-96.7122,0.476,1111122 
TCOON,ioos:station:TCOON:031:1,2014-05-01T22:00:00Z,28.4073,-96.7122,0.491,1111122 
TCOON,ioos:station:TCOON:031:1,2014-05-01T23:00:00Z,28.4073,-96.7122,0.512,1111122 
TCOON,ioos:station:TCOON:031:1,2014-05-02T00:00:00Z,28.4073,-96.7122,0.506,1111122 
TCOON,ioos:station:TCOON:031:1,2014-05-02T01:00:00Z,28.4073,-96.7122,0.516,1111122 
TCOON,ioos:station:TCOON:031:1,2014-05-02T02:00:00Z,28.4073,-96.7122,0.506,1111122 
TCOON,ioos:station:TCOON:031:1,2014-05-02T03:00:00Z,28.4073,-96.7122,0.503,1111122 
TCOON,ioos:station:TCOON:031:1,2014-05-02T04:00:00Z,28.4073,-96.7122,0.5,1111122 
TCOON,ioos:station:TCOON:031:1,2014-05-02T05:00:00Z,28.4073,-96.7122,0.496,1111122 
TCOON,ioos:station:TCOON:031:1,2014-05-02T06:00:00Z,28.4073,-96.7122,0.485,1111122 
TCOON,ioos:station:TCOON:031:1,2014-05-02T07:00:00Z,28.4073,-96.7122,0.482,1111122 
TCOON,ioos:station:TCOON:031:1,2014-05-02T08:00:00Z,28.4073,-96.7122,0.474,1111122 
TCOON,ioos:station:TCOON:031:1,2014-05-02T08:54:00Z,28.4073,-96.7122,0.467,1111122 
TCOON,ioos:station:TCOON:031:1,2014-05-02T10:00:00Z,28.4073,-96.7122,0.447,1111122 
TCOON,ioos:station:TCOON:031:1,2014-05-02T11:00:00Z,28.4073,-96.7122,0.426,1111122 
TCOON,ioos:station:TCOON:031:1,2014-05-02T12:00:00Z,28.4073,-96.7122,0.425,1111122 
TCOON,ioos:station:TCOON:031:1,2014-05-02T13:00:00Z,28.4073,-96.7122,0.437,1111122 
TCOON,ioos:station:TCOON:031:1,2014-05-02T14:00:00Z,28.4073,-96.7122,0.427,1111122 
TCOON,ioos:station:TCOON:031:1,2014-05-02T15:00:00Z,28.4073,-96.7122,0.434,1111122 
TCOON,ioos:station:TCOON:031:1,2014-05-02T16:00:00Z,28.4073,-96.7122,0.432,1111122 
TCOON,ioos:station:TCOON:031:1,2014-05-02T17:00:00Z,28.4073,-96.7122,0.452,1111122 
TCOON,ioos:station:TCOON:031:1,2014-05-02T18:00:00Z,28.4073,-96.7122,0.447,1111122 
TCOON,ioos:station:TCOON:031:1,2014-05-02T19:00:00Z,28.4073,-96.7122,0.441,1111122 
TCOON,ioos:station:TCOON:031:1,2014-05-02T20:00:00Z,28.4073,-96.7122,0.455,1111122 
TCOON,ioos:station:TCOON:031:1,2014-05-02T21:00:00Z,28.4073,-96.7122,0.481,1111122 
TCOON,ioos:station:TCOON:031:1,2014-05-02T22:00:00Z,28.4073,-96.7122,0.506,1111122 
TCOON,ioos:station:TCOON:031:1,2014-05-02T23:00:00Z,28.4073,-96.7122,0.534,1111122 
TCOON,ioos:station:TCOON:031:1,2014-05-03T00:00:00Z,28.4073,-96.7122,0.552,1111122 
TCOON,ioos:station:TCOON:031:1,2014-05-03T01:00:00Z,28.4073,-96.7122,0.543,1111122 
TCOON,ioos:station:TCOON:031:1,2014-05-03T02:00:00Z,28.4073,-96.7122,0.526,1111122 
TCOON,ioos:station:TCOON:031:1,2014-05-03T03:00:00Z,28.4073,-96.7122,0.512,1111122 
TCOON,ioos:station:TCOON:031:1,2014-05-03T04:00:00Z,28.4073,-96.7122,0.513,1111122 
TCOON,ioos:station:TCOON:031:1,2014-05-03T05:00:00Z,28.4073,-96.7122,0.502,1111122 
TCOON,ioos:station:TCOON:031:1,2014-05-03T06:00:00Z,28.4073,-96.7122,0.496,1111122 
TCOON,ioos:station:TCOON:031:1,2014-05-03T07:00:00Z,28.4073,-96.7122,0.498,1111122 
TCOON,ioos:station:TCOON:031:1,2014-05-03T08:00:00Z,28.4073,-96.7122,0.486,1111122 
TCOON,ioos:station:TCOON:031:1,2014-05-03T09:00:00Z,28.4073,-96.7122,0.488,1111122 
TCOON,ioos:station:TCOON:031:1,2014-05-03T10:00:00Z,28.4073,-96.7122,0.485,1111122 
TCOON,ioos:station:TCOON:031:1,2014-05-03T11:00:00Z,28.4073,-96.7122,0.476,1111122 
TCOON,ioos:station:TCOON:031:1,2014-05-03T12:00:00Z,28.4073,-96.7122,0.454,1111122 
TCOON,ioos:station:TCOON:031:1,2014-05-03T13:00:00Z,28.4073,-96.7122,0.435,1111122 
TCOON,ioos:station:TCOON:031:1,2014-05-03T14:00:00Z,28.4073,-96.7122,0.42,1111122 
TCOON,ioos:station:TCOON:031:1,2014-05-03T15:00:00Z,28.4073,-96.7122,0.431,1111122 
TCOON,ioos:station:TCOON:031:1,2014-05-03T16:00:00Z,28.4073,-96.7122,0.44,1111122 
TCOON,ioos:station:TCOON:031:1,2014-05-03T17:00:00Z,28.4073,-96.7122,0.427,1111122 
TCOON,ioos:station:TCOON:031:1,2014-05-03T18:00:00Z,28.4073,-96.7122,0.44,1111122 
TCOON,ioos:station:TCOON:031:1,2014-05-03T19:00:00Z,28.4073,-96.7122,0.433,1111122 
TCOON,ioos:station:TCOON:031:1,2014-05-03T20:00:00Z,28.4073,-96.7122,0.449,1111122 
TCOON,ioos:station:TCOON:031:1,2014-05-03T21:00:00Z,28.4073,-96.7122,0.483,1111122 
TCOON,ioos:station:TCOON:031:1,2014-05-03T22:00:00Z,28.4073,-96.7122,0.498,1111122 
TCOON,ioos:station:TCOON:031:1,2014-05-03T23:00:00Z,28.4073,-96.7122,0.492,1111122 
TCOON,ioos:station:TCOON:031:1,2014-05-04T00:00:00Z,28.4073,-96.7122,0.495,1111122 
TCOON,ioos:station:TCOON:031:1,2014-05-04T01:00:00Z,28.4073,-96.7122,0.487,1111122 
TCOON,ioos:station:TCOON:031:1,2014-05-04T02:00:00Z,28.4073,-96.7122,0.488,1111122 
TCOON,ioos:station:TCOON:031:1,2014-05-04T02:54:00Z,28.4073,-96.7122,0.481,1111122 
TCOON,ioos:station:TCOON:031:1,2014-05-04T04:00:00Z,28.4073,-96.7122,0.464,1111122 
TCOON,ioos:station:TCOON:031:1,2014-05-04T05:00:00Z,28.4073,-96.7122,0.456,1111122 
TCOON,ioos:station:TCOON:031:1,2014-05-04T06:24:00Z,28.4073,-96.7122,0.439,1111122 
TCOON,ioos:station:TCOON:031:1,2014-05-04T07:00:00Z,28.4073,-96.7122,0.441,1111122 
TCOON,ioos:station:TCOON:031:1,2014-05-04T08:00:00Z,28.4073,-96.7122,0.422,1111122 
TCOON,ioos:station:TCOON:031:1,2014-05-04T09:00:00Z,28.4073,-96.7122,0.416,1111122 
TCOON,ioos:station:TCOON:031:1,2014-05-04T10:00:00Z,28.4073,-96.7122,0.421,1111122 
TCOON,ioos:station:TCOON:031:1,2014-05-04T11:00:00Z,28.4073,-96.7122,0.417,1111122 
TCOON,ioos:station:TCOON:031:1,2014-05-04T12:00:00Z,28.4073,-96.7122,0.408,1111122 
TCOON,ioos:station:TCOON:031:1,2014-05-04T13:00:00Z,28.4073,-96.7122,0.397,1111122 
TCOON,ioos:station:TCOON:031:1,2014-05-04T14:00:00Z,28.4073,-96.7122,0.399,1111122 
TCOON,ioos:station:TCOON:031:1,2014-05-04T15:00:00Z,28.4073,-96.7122,0.409,1111122 
TCOON,ioos:station:TCOON:031:1,2014-05-04T16:00:00Z,28.4073,-96.7122,0.421,1111122 
TCOON,ioos:station:TCOON:031:1,2014-05-04T17:00:00Z,28.4073,-96.7122,0.392,1111122 
TCOON,ioos:station:TCOON:031:1,2014-05-04T18:00:00Z,28.4073,-96.7122,0.39,1111122 
TCOON,ioos:station:TCOON:031:1,2014-05-04T18:54:00Z,28.4073,-96.7122,0.387,1111122 
TCOON,ioos:station:TCOON:031:1,2014-05-04T20:00:00Z,28.4073,-96.7122,0.399,1111122 
TCOON,ioos:station:TCOON:031:1,2014-05-04T21:00:00Z,28.4073,-96.7122,0.398,1111122 
TCOON,ioos:station:TCOON:031:1,2014-05-04T22:00:00Z,28.4073,-96.7122,0.393,1111122 
TCOON,ioos:station:TCOON:031:1,2014-05-04T23:00:00Z,28.4073,-96.7122,0.391,1111122 
TCOON,ioos:station:TCOON:031:1,2014-05-05T00:00:00Z,28.4073,-96.7122,0.39,1111122 
TCOON,ioos:station:TCOON:031:1,2014-05-05T01:00:00Z,28.4073,-96.7122,0.399,1111122 
TCOON,ioos:station:TCOON:031:1,2014-05-05T02:00:00Z,28.4073,-96.7122,0.409,1111122 
TCOON,ioos:station:TCOON:031:1,2014-05-05T03:00:00Z,28.4073,-96.7122,0.419,1111122 
TCOON,ioos:station:TCOON:031:1,2014-05-05T04:00:00Z,28.4073,-96.7122,0.422,1111122 
TCOON,ioos:station:TCOON:031:1,2014-05-05T05:00:00Z,28.4073,-96.7122,0.423,1111122 
TCOON,ioos:station:TCOON:031:1,2014-05-05T06:30:00Z,28.4073,-96.7122,0.44,1111122 
TCOON,ioos:station:TCOON:031:1,2014-05-05T07:00:00Z,28.4073,-96.7122,0.427,1111122 
TCOON,ioos:station:TCOON:031:1,2014-05-05T08:00:00Z,28.4073,-96.7122,0.42,1111122 
TCOON,ioos:station:TCOON:031:1,2014-05-05T09:00:00Z,28.4073,-96.7122,0.392,1111122 
TCOON,ioos:station:TCOON:031:1,2014-05-05T10:00:00Z,28.4073,-96.7122,0.382,1111122 
TCOON,ioos:station:TCOON:031:1,2014-05-05T11:00:00Z,28.4073,-96.7122,0.37,1111122 
TCOON,ioos:station:TCOON:031:1,2014-05-05T12:00:00Z,28.4073,-96.7122,0.36,1111122 
TCOON,ioos:station:TCOON:031:1,2014-05-05T13:00:00Z,28.4073,-96.7122,0.341,1111122 
TCOON,ioos:station:TCOON:031:1,2014-05-05T14:00:00Z,28.4073,-96.7122,0.364,1111122 
TCOON,ioos:station:TCOON:031:1,2014-05-05T15:00:00Z,28.4073,-96.7122,0.359,1111122 
TCOON,ioos:station:TCOON:031:1,2014-05-05T16:00:00Z,28.4073,-96.7122,0.357,1111122 
TCOON,ioos:station:TCOON:031:1,2014-05-05T17:00:00Z,28.4073,-96.7122,0.343,1111122 
TCOON,ioos:station:TCOON:031:1,2014-05-05T18:00:00Z,28.4073,-96.7122,0.342,1111122 
TCOON,ioos:station:TCOON:031:1,2014-05-05T19:00:00Z,28.4073,-96.7122,0.37,1111122 
TCOON,ioos:station:TCOON:031:1,2014-05-05T20:00:00Z,28.4073,-96.7122,0.369,1111122 
TCOON,ioos:station:TCOON:031:1,2014-05-05T21:00:00Z,28.4073,-96.7122,0.381,1111122 
TCOON,ioos:station:TCOON:031:1,2014-05-05T22:00:00Z,28.4073,-96.7122,0.382,1111122 
TCOON,ioos:station:TCOON:031:1,2014-05-05T23:00:00Z,28.4073,-96.7122,0.388,1111122 
TCOON,ioos:station:TCOON:031:1,2014-05-06T00:00:00Z,28.4073,-96.7122,0.401,1111122 
TCOON,ioos:station:TCOON:031:1,2014-05-06T01:00:00Z,28.4073,-96.7122,0.406,1111122 
TCOON,ioos:station:TCOON:031:1,2014-05-06T02:00:00Z,28.4073,-96.7122,0.399,1111122 
TCOON,ioos:station:TCOON:031:1,2014-05-06T03:00:00Z,28.4073,-96.7122,0.402,1111122 
TCOON,ioos:station:TCOON:031:1,2014-05-06T04:00:00Z,28.4073,-96.7122,0.404,1111122 
TCOON,ioos:station:TCOON:031:1,2014-05-06T05:00:00Z,28.4073,-96.7122,0.427,1111122 
TCOON,ioos:station:TCOON:031:1,2014-05-06T06:36:00Z,28.4073,-96.7122,0.429,1111122 
TCOON,ioos:station:TCOON:031:1,2014-05-06T07:00:00Z,28.4073,-96.7122,0.433,1111122 
TCOON,ioos:station:TCOON:031:1,2014-05-06T08:00:00Z,28.4073,-96.7122,0.442,1111122 
TCOON,ioos:station:TCOON:031:1,2014-05-06T09:00:00Z,28.4073,-96.7122,0.461,1111122 
TCOON,ioos:station:TCOON:031:1,2014-05-06T10:00:00Z,28.4073,-96.7122,0.438,1111122 
TCOON,ioos:station:TCOON:031:1,2014-05-06T11:00:00Z,28.4073,-96.7122,0.435,1111122 
TCOON,ioos:station:TCOON:031:1,2014-05-06T12:00:00Z,28.4073,-96.7122,0.403,1111122 
TCOON,ioos:station:TCOON:031:1,2014-05-06T13:00:00Z,28.4073,-96.7122,0.392,1111122 
TCOON,ioos:station:TCOON:031:1,2014-05-06T14:00:00Z,28.4073,-96.7122,0.399,1111122 
TCOON,ioos:station:TCOON:031:1,2014-05-06T15:00:00Z,28.4073,-96.7122,0.404,1111122 
TCOON,ioos:station:TCOON:031:1,2014-05-06T16:00:00Z,28.4073,-96.7122,0.415,1111122 
TCOON,ioos:station:TCOON:031:1,2014-05-06T16:54:00Z,28.4073,-96.7122,0.409,1111122 
TCOON,ioos:station:TCOON:031:1,2014-05-06T18:00:00Z,28.4073,-96.7122,0.422,1111122 
TCOON,ioos:station:TCOON:031:1,2014-05-06T19:12:00Z,28.4073,-96.7122,0.435,1111122 
TCOON,ioos:station:TCOON:031:1,2014-05-06T20:12:00Z,28.4073,-96.7122,0.444,1111122 
TCOON,ioos:station:TCOON:031:1,2014-05-06T21:18:00Z,28.4073,-96.7122,0.46,1111122 
TCOON,ioos:station:TCOON:031:1,2014-05-06T22:12:00Z,28.4073,-96.7122,0.458,1111122 
TCOON,ioos:station:TCOON:031:1,2014-05-06T23:12:00Z,28.4073,-96.7122,0.464,1111122 
TCOON,ioos:station:TCOON:031:1,2014-05-07T00:06:00Z,28.4073,-96.7122,0.468,1111122 
TCOON,ioos:station:TCOON:031:1,2014-05-07T01:00:00Z,28.4073,-96.7122,0.473,1111122 
TCOON,ioos:station:TCOON:031:1,2014-05-07T02:00:00Z,28.4073,-96.7122,0.458,1111122 
TCOON,ioos:station:TCOON:031:1,2014-05-07T03:00:00Z,28.4073,-96.7122,0.467,1111122 
TCOON,ioos:station:TCOON:031:1,2014-05-07T04:00:00Z,28.4073,-96.7122,0.481,1111122 
TCOON,ioos:station:TCOON:031:1,2014-05-07T05:00:00Z,28.4073,-96.7122,0.488,1111122 
TCOON,ioos:station:TCOON:031:1,2014-05-07T06:24:00Z,28.4073,-96.7122,0.501,1111122 
TCOON,ioos:station:TCOON:031:1,2014-05-07T07:00:00Z,28.4073,-96.7122,0.5,1111122 
TCOON,ioos:station:TCOON:031:1,2014-05-07T08:00:00Z,28.4073,-96.7122,0.492,1111122 
TCOON,ioos:station:TCOON:031:1,2014-05-07T09:00:00Z,28.4073,-96.7122,0.483,1111122 
TCOON,ioos:station:TCOON:031:1,2014-05-07T10:00:00Z,28.4073,-96.7122,0.49,1111122 
TCOON,ioos:station:TCOON:031:1,2014-05-07T11:00:00Z,28.4073,-96.7122,0.479,1111122 
TCOON,ioos:station:TCOON:031:1,2014-05-07T12:00:00Z,28.4073,-96.7122,0.483,1111122 
TCOON,ioos:station:TCOON:031:1,2014-05-07T13:00:00Z,28.4073,-96.7122,0.487,1111122 
TCOON,ioos:station:TCOON:031:1,2014-05-07T14:00:00Z,28.4073,-96.7122,0.505,1111122 
TCOON,ioos:station:TCOON:031:1,2014-05-07T15:00:00Z,28.4073,-96.7122,0.508,1111122 
TCOON,ioos:station:TCOON:031:1,2014-05-07T16:00:00Z,28.4073,-96.7122,0.5,1111122 
TCOON,ioos:station:TCOON:031:1,2014-05-07T17:00:00Z,28.4073,-96.7122,0.528,1111122 
TCOON,ioos:station:TCOON:031:1,2014-05-07T18:00:00Z,28.4073,-96.7122,0.566,1111122 
TCOON,ioos:station:TCOON:031:1,2014-05-07T19:00:00Z,28.4073,-96.7122,0.537,1111122 
TCOON,ioos:station:TCOON:031:1,2014-05-07T20:00:00Z,28.4073,-96.7122,0.513,1111122 
TCOON,ioos:station:TCOON:031:1,2014-05-07T21:00:00Z,28.4073,-96.7122,0.532,1111122 
TCOON,ioos:station:TCOON:031:1,2014-05-07T22:00:00Z,28.4073,-96.7122,0.58,1111122 
TCOON,ioos:station:TCOON:031:1,2014-05-07T23:00:00Z,28.4073,-96.7122,0.666,1111122 
TCOON,ioos:station:TCOON:031:1,2014-05-08T00:00:00Z,28.4073,-96.7122,0.598,1111122 
TCOON,ioos:station:TCOON:031:1,2014-05-08T01:00:00Z,28.4073,-96.7122,0.531,1111122 
TCOON,ioos:station:TCOON:031:1,2014-05-08T02:00:00Z,28.4073,-96.7122,0.55,1111122 
TCOON,ioos:station:TCOON:031:1,2014-05-08T03:00:00Z,28.4073,-96.7122,0.576,1111122 
TCOON,ioos:station:TCOON:031:1,2014-05-08T04:00:00Z,28.4073,-96.7122,0.611,1111122 
TCOON,ioos:station:TCOON:031:1,2014-05-08T05:00:00Z,28.4073,-96.7122,0.632,1111122 
TCOON,ioos:station:TCOON:031:1,2014-05-08T06:00:00Z,28.4073,-96.7122,0.635,1111122 
TCOON,ioos:station:TCOON:031:1,2014-05-08T07:00:00Z,28.4073,-96.7122,0.577,1111122 
TCOON,ioos:station:TCOON:031:1,2014-05-08T07:54:00Z,28.4073,-96.7122,0.553,1111122 
TCOON,ioos:station:TCOON:031:1,2014-05-08T09:00:00Z,28.4073,-96.7122,0.564,1111122 
TCOON,ioos:station:TCOON:031:1,2014-05-08T10:00:00Z,28.4073,-96.7122,0.571,1111122 
TCOON,ioos:station:TCOON:031:1,2014-05-08T11:00:00Z,28.4073,-96.7122,0.615,1111122 
TCOON,ioos:station:TCOON:031:1,2014-05-08T12:00:00Z,28.4073,-96.7122,0.583,1111122 
TCOON,ioos:station:TCOON:031:1,2014-05-08T13:00:00Z,28.4073,-96.7122,0.606,1111122 
TCOON,ioos:station:TCOON:031:1,2014-05-08T14:00:00Z,28.4073,-96.7122,0.606,1111122 
TCOON,ioos:station:TCOON:031:1,2014-05-08T15:00:00Z,28.4073,-96.7122,0.646,1111122 
TCOON,ioos:station:TCOON:031:1,2014-05-08T16:00:00Z,28.4073,-96.7122,0.644,1111122 
TCOON,ioos:station:TCOON:031:1,2014-05-08T17:00:00Z,28.4073,-96.7122,0.62,1111122 
TCOON,ioos:station:TCOON:031:1,2014-05-08T18:00:00Z,28.4073,-96.7122,0.589,1111122 
TCOON,ioos:station:TCOON:031:1,2014-05-08T18:54:00Z,28.4073,-96.7122,0.584,1111122 
TCOON,ioos:station:TCOON:031:1,2014-05-08T20:00:00Z,28.4073,-96.7122,0.598,1111122 
TCOON,ioos:station:TCOON:031:1,2014-05-08T21:00:00Z,28.4073,-96.7122,0.617,1111122 
TCOON,ioos:station:TCOON:031:1,2014-05-08T22:00:00Z,28.4073,-96.7122,0.597,1111122 
TCOON,ioos:station:TCOON:031:1,2014-05-08T23:00:00Z,28.4073,-96.7122,0.626,1111122 
TCOON,ioos:station:TCOON:031:1,2014-05-09T00:00:00Z,28.4073,-96.7122,0.622,1111122 
TCOON,ioos:station:TCOON:031:1,2014-05-09T01:00:00Z,28.4073,-96.7122,0.643,1111122 
TCOON,ioos:station:TCOON:031:1,2014-05-09T02:00:00Z,28.4073,-96.7122,0.652,1111122 
TCOON,ioos:station:TCOON:031:1,2014-05-09T03:00:00Z,28.4073,-96.7122,0.651,1111122 
TCOON,ioos:station:TCOON:031:1,2014-05-09T04:00:00Z,28.4073,-96.7122,0.664,1111122 
TCOON,ioos:station:TCOON:031:1,2014-05-09T05:00:00Z,28.4073,-96.7122,0.682,1111122 
TCOON,ioos:station:TCOON:031:1,2014-05-09T06:24:00Z,28.4073,-96.7122,0.642,1111122 
TCOON,ioos:station:TCOON:031:1,2014-05-09T07:00:00Z,28.4073,-96.7122,0.638,1111122 
TCOON,ioos:station:TCOON:031:1,2014-05-09T08:00:00Z,28.4073,-96.7122,0.645,1111122 
TCOON,ioos:station:TCOON:031:1,2014-05-09T09:00:00Z,28.4073,-96.7122,0.642,1111122 
TCOON,ioos:station:TCOON:031:1,2014-05-09T10:00:00Z,28.4073,-96.7122,0.625,1111122 
TCOON,ioos:station:TCOON:031:1,2014-05-09T11:00:00Z,28.4073,-96.7122,0.634,1111122 
TCOON,ioos:station:TCOON:031:1,2014-05-09T12:00:00Z,28.4073,-96.7122,0.634,1111122 
TCOON,ioos:station:TCOON:031:1,2014-05-09T13:00:00Z,28.4073,-96.7122,0.631,1111122 
TCOON,ioos:station:TCOON:031:1,2014-05-09T14:00:00Z,28.4073,-96.7122,0.612,1111122 
TCOON,ioos:station:TCOON:031:1,2014-05-09T15:00:00Z,28.4073,-96.7122,0.616,1111122 
TCOON,ioos:station:TCOON:031:1,2014-05-09T16:00:00Z,28.4073,-96.7122,0.617,1111122 
TCOON,ioos:station:TCOON:031:1,2014-05-09T17:00:00Z,28.4073,-96.7122,0.633,1111122 
TCOON,ioos:station:TCOON:031:1,2014-05-09T18:00:00Z,28.4073,-96.7122,0.638,1111122 
TCOON,ioos:station:TCOON:031:1,2014-05-09T19:00:00Z,28.4073,-96.7122,0.622,1111122 
TCOON,ioos:station:TCOON:031:1,2014-05-09T20:00:00Z,28.4073,-96.7122,0.634,1111122 
TCOON,ioos:station:TCOON:031:1,2014-05-09T20:54:00Z,28.4073,-96.7122,0.607,1111122 
TCOON,ioos:station:TCOON:031:1,2014-05-09T22:00:00Z,28.4073,-96.7122,0.634,1111122 
TCOON,ioos:station:TCOON:031:1,2014-05-09T23:00:00Z,28.4073,-96.7122,0.586,1111122 
TCOON,ioos:station:TCOON:031:1,2014-05-10T00:00:00Z,28.4073,-96.7122,0.519,1111122 
TCOON,ioos:station:TCOON:031:1,2014-05-10T00:54:00Z,28.4073,-96.7122,0.531,1111122 
TCOON,ioos:station:TCOON:031:1,2014-05-10T02:00:00Z,28.4073,-96.7122,0.529,1111122 
TCOON,ioos:station:TCOON:031:1,2014-05-10T03:00:00Z,28.4073,-96.7122,0.582,1111122 
TCOON,ioos:station:TCOON:031:1,2014-05-10T04:00:00Z,28.4073,-96.7122,0.729,1111122 
TCOON,ioos:station:TCOON:031:1,2014-05-10T05:00:00Z,28.4073,-96.7122,0.664,1111122 
TCOON,ioos:station:TCOON:031:1,2014-05-10T06:00:00Z,28.4073,-96.7122,0.651,1111122 
TCOON,ioos:station:TCOON:031:1,2014-05-10T07:00:00Z,28.4073,-96.7122,0.554,1111122 
TCOON,ioos:station:TCOON:031:1,2014-05-10T08:00:00Z,28.4073,-96.7122,0.577,1111122 
TCOON,ioos:station:TCOON:031:1,2014-05-10T09:00:00Z,28.4073,-96.7122,0.6,1111122 
TCOON,ioos:station:TCOON:031:1,2014-05-10T10:00:00Z,28.4073,-96.7122,0.598,1111122 
TCOON,ioos:station:TCOON:031:1,2014-05-10T11:00:00Z,28.4073,-96.7122,0.584,1111122 
TCOON,ioos:station:TCOON:031:1,2014-05-10T12:00:00Z,28.4073,-96.7122,0.598,1111122 
TCOON,ioos:station:TCOON:031:1,2014-05-10T13:00:00Z,28.4073,-96.7122,0.603,1111122 
TCOON,ioos:station:TCOON:031:1,2014-05-10T14:00:00Z,28.4073,-96.7122,0.601,1111122 
TCOON,ioos:station:TCOON:031:1,2014-05-10T15:00:00Z,28.4073,-96.7122,0.608,1111122 
TCOON,ioos:station:TCOON:031:1,2014-05-10T16:00:00Z,28.4073,-96.7122,0.623,1111122 
TCOON,ioos:station:TCOON:031:1,2014-05-10T17:00:00Z,28.4073,-96.7122,0.626,1111122 
TCOON,ioos:station:TCOON:031:1,2014-05-10T18:00:00Z,28.4073,-96.7122,0.632,1111122 
TCOON,ioos:station:TCOON:031:1,2014-05-10T19:00:00Z,28.4073,-96.7122,0.633,1111122 
TCOON,ioos:station:TCOON:031:1,2014-05-10T19:54:00Z,28.4073,-96.7122,0.65,1111122 
TCOON,ioos:station:TCOON:031:1,2014-05-10T21:00:00Z,28.4073,-96.7122,0.654,1111122 
TCOON,ioos:station:TCOON:031:1,2014-05-10T22:00:00Z,28.4073,-96.7122,0.662,1111122 
TCOON,ioos:station:TCOON:031:1,2014-05-10T23:00:00Z,28.4073,-96.7122,0.669,1111122 
TCOON,ioos:station:TCOON:031:1,2014-05-11T00:00:00Z,28.4073,-96.7122,0.653,1111122 
TCOON,ioos:station:TCOON:031:1,2014-05-11T01:00:00Z,28.4073,-96.7122,0.663,1111122 
TCOON,ioos:station:TCOON:031:1,2014-05-11T02:00:00Z,28.4073,-96.7122,0.657,1111122 
TCOON,ioos:station:TCOON:031:1,2014-05-11T03:00:00Z,28.4073,-96.7122,0.65,1111122 
TCOON,ioos:station:TCOON:031:1,2014-05-11T04:00:00Z,28.4073,-96.7122,0.64,1111122 
TCOON,ioos:station:TCOON:031:1,2014-05-11T05:00:00Z,28.4073,-96.7122,0.649,1111122 
TCOON,ioos:station:TCOON:031:1,2014-05-11T06:30:00Z,28.4073,-96.7122,0.634,1111122 
TCOON,ioos:station:TCOON:031:1,2014-05-11T07:00:00Z,28.4073,-96.7122,0.643,1111122 
TCOON,ioos:station:TCOON:031:1,2014-05-11T08:00:00Z,28.4073,-96.7122,0.641,1111122 
TCOON,ioos:station:TCOON:031:1,2014-05-11T09:00:00Z,28.4073,-96.7122,0.643,1111122 
TCOON,ioos:station:TCOON:031:1,2014-05-11T10:00:00Z,28.4073,-96.7122,0.662,1111122 
TCOON,ioos:station:TCOON:031:1,2014-05-11T11:00:00Z,28.4073,-96.7122,0.669,1111122 
TCOON,ioos:station:TCOON:031:1,2014-05-11T11:54:00Z,28.4073,-96.7122,0.676,1111122 
TCOON,ioos:station:TCOON:031:1,2014-05-11T13:00:00Z,28.4073,-96.7122,0.683,1111122 
TCOON,ioos:station:TCOON:031:1,2014-05-11T14:00:00Z,28.4073,-96.7122,0.683,1111122 
TCOON,ioos:station:TCOON:031:1,2014-05-11T15:00:00Z,28.4073,-96.7122,0.685,1111122 
TCOON,ioos:station:TCOON:031:1,2014-05-11T16:00:00Z,28.4073,-96.7122,0.717,1111122 
TCOON,ioos:station:TCOON:031:1,2014-05-11T17:00:00Z,28.4073,-96.7122,0.698,1111122 
TCOON,ioos:station:TCOON:031:1,2014-05-11T18:00:00Z,28.4073,-96.7122,0.682,1111122 
TCOON,ioos:station:TCOON:031:1,2014-05-11T19:00:00Z,28.4073,-96.7122,0.699,1111122 
TCOON,ioos:station:TCOON:031:1,2014-05-11T20:00:00Z,28.4073,-96.7122,0.7,1111122 
TCOON,ioos:station:TCOON:031:1,2014-05-11T21:00:00Z,28.4073,-96.7122,0.706,1111122 
TCOON,ioos:station:TCOON:031:1,2014-05-11T21:54:00Z,28.4073,-96.7122,0.742,1111122 
TCOON,ioos:station:TCOON:031:1,2014-05-11T23:00:00Z,28.4073,-96.7122,0.725,1111122 
TCOON,ioos:station:TCOON:031:1,2014-05-12T00:00:00Z,28.4073,-96.7122,0.731,1111122 
TCOON,ioos:station:TCOON:031:1,2014-05-12T01:00:00Z,28.4073,-96.7122,0.725,1111122 
TCOON,ioos:station:TCOON:031:1,2014-05-12T02:00:00Z,28.4073,-96.7122,0.701,1111122 
TCOON,ioos:station:TCOON:031:1,2014-05-12T03:00:00Z,28.4073,-96.7122,0.713,1111122 
TCOON,ioos:station:TCOON:031:1,2014-05-12T04:00:00Z,28.4073,-96.7122,0.753,1111122 
TCOON,ioos:station:TCOON:031:1,2014-05-12T05:00:00Z,28.4073,-96.7122,0.736,1111122 
TCOON,ioos:station:TCOON:031:1,2014-05-12T06:30:00Z,28.4073,-96.7122,0.694,1111122 
TCOON,ioos:station:TCOON:031:1,2014-05-12T07:00:00Z,28.4073,-96.7122,0.72,1111122 
TCOON,ioos:station:TCOON:031:1,2014-05-12T08:00:00Z,28.4073,-96.7122,0.736,1111122 
TCOON,ioos:station:TCOON:031:1,2014-05-12T09:00:00Z,28.4073,-96.7122,0.712,1111122 
TCOON,ioos:station:TCOON:031:1,2014-05-12T10:00:00Z,28.4073,-96.7122,0.68,1111122 
TCOON,ioos:station:TCOON:031:1,2014-05-12T11:00:00Z,28.4073,-96.7122,0.682,1111122 
TCOON,ioos:station:TCOON:031:1,2014-05-12T12:00:00Z,28.4073,-96.7122,0.696,1111122 
TCOON,ioos:station:TCOON:031:1,2014-05-12T13:00:00Z,28.4073,-96.7122,0.713,1111122 
TCOON,ioos:station:TCOON:031:1,2014-05-12T14:00:00Z,28.4073,-96.7122,0.739,1111122 
TCOON,ioos:station:TCOON:031:1,2014-05-12T15:00:00Z,28.4073,-96.7122,0.737,1111122 
TCOON,ioos:station:TCOON:031:1,2014-05-12T16:00:00Z,28.4073,-96.7122,0.708,1111122 
TCOON,ioos:station:TCOON:031:1,2014-05-12T17:00:00Z,28.4073,-96.7122,0.731,1111122 
TCOON,ioos:station:TCOON:031:1,2014-05-12T18:00:00Z,28.4073,-96.7122,0.717,1111122 
TCOON,ioos:station:TCOON:031:1,2014-05-12T19:00:00Z,28.4073,-96.7122,0.748,1111122 
TCOON,ioos:station:TCOON:031:1,2014-05-12T20:00:00Z,28.4073,-96.7122,0.735,1111122 